contact:dominique.lefevre@mio.osupytheas.fr, maurice.libes@osupytheas.fr, didier.mallarino@osupytheas.fr
Project:EMSO http://www.emso-fr.org/EMSO-France
Depth: 2436.0 m
Title:EMSO Ligure Ouest : Data MII capteur CSTAR
DateTime,Latitude,Longitude,Instrument_Serial,Reference_Counts,Signal_Counts,Corrected_Signal_raw_counts,Calculated_Beam_c_inverse_meters,Internal_thermistor_counts
DateTime,Latitude,Longitude,Instrument_Serial,Reference_Counts,Signal_Counts,Corrected_Signal_raw_counts,Calculated_Beam_c_inverse_meters,Internal_thermistor_counts
2020-01-22T00:02:51,42.805,6.029,CST-1368DR,6920,9699,15252,0.094,551
2020-01-22T00:05:52,42.805,6.029,CST-1368DR,6920,9699,15253,0.094,551
2020-01-22T00:08:54,42.805,6.029,CST-1368DR,6920,9697,15250,0.095,551
2020-01-22T00:11:56,42.805,6.029,CST-1368DR,6920,9698,15252,0.094,551
2020-01-22T00:14:57,42.805,6.029,CST-1368DR,6920,9698,15251,0.095,551
2020-01-22T00:17:59,42.805,6.029,CST-1368DR,6919,9697,15252,0.094,551
2020-01-22T00:21:01,42.805,6.029,CST-1368DR,6920,9698,15251,0.095,551
2020-01-22T00:24:02,42.805,6.029,CST-1368DR,6919,9697,15252,0.094,551
2020-01-22T00:27:04,42.805,6.029,CST-1368DR,6920,9698,15251,0.095,551
2020-01-22T00:30:06,42.805,6.029,CST-1368DR,6919,9697,15251,0.095,551
2020-01-22T00:33:07,42.805,6.029,CST-1368DR,6919,9697,15252,0.094,551
2020-01-22T00:36:09,42.805,6.029,CST-1368DR,6919,9698,15253,0.094,551
2020-01-22T00:39:11,42.805,6.029,CST-1368DR,6919,9698,15254,0.094,550
2020-01-22T00:42:12,42.805,6.029,CST-1368DR,6920,9698,15252,0.094,551
2020-01-22T00:45:14,42.805,6.029,CST-1368DR,6920,9698,15251,0.095,550
2020-01-22T00:48:16,42.805,6.029,CST-1368DR,6919,9698,15253,0.094,551
2020-01-22T00:51:17,42.805,6.029,CST-1368DR,6919,9698,15253,0.094,551
2020-01-22T00:54:19,42.805,6.029,CST-1368DR,6919,9696,15251,0.095,551
2020-01-22T00:57:21,42.805,6.029,CST-1368DR,6919,9698,15253,0.094,551
2020-01-22T01:00:22,42.805,6.029,CST-1368DR,6919,9698,15253,0.094,551
2020-01-22T01:03:24,42.805,6.029,CST-1368DR,6919,9698,15253,0.094,551
2020-01-22T01:06:26,42.805,6.029,CST-1368DR,6919,9697,15252,0.094,551
2020-01-22T01:09:27,42.805,6.029,CST-1368DR,6919,9698,15253,0.094,551
2020-01-22T01:12:29,42.805,6.029,CST-1368DR,6919,9698,15253,0.094,551
2020-01-22T01:15:31,42.805,6.029,CST-1368DR,6919,9697,15252,0.094,551
2020-01-22T01:18:32,42.805,6.029,CST-1368DR,6919,9697,15252,0.094,551
2020-01-22T01:21:34,42.805,6.029,CST-1368DR,6919,9697,15252,0.094,551
2020-01-22T01:24:36,42.805,6.029,CST-1368DR,6919,9697,15251,0.095,551
2020-01-22T01:27:37,42.805,6.029,CST-1368DR,6919,9696,15250,0.095,551
2020-01-22T01:30:39,42.805,6.029,CST-1368DR,6919,9696,15250,0.095,551
2020-01-22T01:33:41,42.805,6.029,CST-1368DR,6919,9697,15252,0.094,551
2020-01-22T01:36:42,42.805,6.029,CST-1368DR,6919,9697,15252,0.094,551
2020-01-22T01:39:44,42.805,6.029,CST-1368DR,6919,9696,15250,0.095,551
2020-01-22T01:42:46,42.805,6.029,CST-1368DR,6919,9697,15252,0.094,551
2020-01-22T01:45:47,42.805,6.029,CST-1368DR,6919,9696,15251,0.095,551
2020-01-22T01:48:49,42.805,6.029,CST-1368DR,6919,9698,15253,0.094,551
2020-01-22T01:51:50,42.805,6.029,CST-1368DR,6919,9697,15252,0.094,551
2020-01-22T01:54:52,42.805,6.029,CST-1368DR,6919,9697,15252,0.094,551
2020-01-22T01:57:54,42.805,6.029,CST-1368DR,6919,9695,15249,0.095,551
2020-01-22T02:00:55,42.805,6.029,CST-1368DR,6919,9697,15252,0.094,551
2020-01-22T02:03:57,42.805,6.029,CST-1368DR,6919,9696,15250,0.095,551
2020-01-22T02:06:59,42.805,6.029,CST-1368DR,6919,9697,15252,0.094,551
2020-01-22T02:10:00,42.805,6.029,CST-1368DR,6919,9698,15253,0.094,551
2020-01-22T02:13:02,42.805,6.029,CST-1368DR,6919,9697,15251,0.095,551
2020-01-22T02:16:04,42.805,6.029,CST-1368DR,6919,9697,15251,0.095,551
2020-01-22T02:19:05,42.805,6.029,CST-1368DR,6919,9698,15253,0.094,551
2020-01-22T02:22:07,42.805,6.029,CST-1368DR,6919,9698,15253,0.094,551
2020-01-22T02:25:09,42.805,6.029,CST-1368DR,6919,9697,15251,0.095,551
2020-01-22T02:28:10,42.805,6.029,CST-1368DR,6919,9696,15250,0.095,551
2020-01-22T02:31:12,42.805,6.029,CST-1368DR,6919,9696,15251,0.095,551
2020-01-22T02:34:14,42.805,6.029,CST-1368DR,6919,9698,15253,0.094,551
2020-01-22T02:37:15,42.805,6.029,CST-1368DR,6919,9697,15252,0.094,551
2020-01-22T02:40:17,42.805,6.029,CST-1368DR,6919,9697,15252,0.094,551
2020-01-22T02:43:19,42.805,6.029,CST-1368DR,6919,9698,15253,0.094,551
2020-01-22T02:46:21,42.805,6.029,CST-1368DR,6919,9697,15252,0.094,551
2020-01-22T02:49:22,42.805,6.029,CST-1368DR,6919,9696,15250,0.095,551
2020-01-22T02:52:24,42.805,6.029,CST-1368DR,6919,9695,15248,0.095,551
2020-01-22T02:55:26,42.805,6.029,CST-1368DR,6919,9697,15252,0.094,551
2020-01-22T02:58:27,42.805,6.029,CST-1368DR,6919,9697,15252,0.094,551
2020-01-22T03:01:29,42.805,6.029,CST-1368DR,6919,9697,15251,0.095,551
2020-01-22T03:04:31,42.805,6.029,CST-1368DR,6919,9697,15251,0.095,551
2020-01-22T03:07:33,42.805,6.029,CST-1368DR,6919,9697,15252,0.094,551
2020-01-22T03:10:34,42.805,6.029,CST-1368DR,6919,9697,15252,0.094,551
2020-01-22T03:13:36,42.805,6.029,CST-1368DR,6919,9696,15250,0.095,551
2020-01-22T03:16:38,42.805,6.029,CST-1368DR,6919,9696,15251,0.095,551
2020-01-22T03:19:39,42.805,6.029,CST-1368DR,6919,9695,15249,0.095,551
2020-01-22T03:22:41,42.805,6.029,CST-1368DR,6919,9695,15249,0.095,551
2020-01-22T03:25:43,42.805,6.029,CST-1368DR,6919,9697,15252,0.094,551
2020-01-22T03:28:45,42.805,6.029,CST-1368DR,6919,9697,15252,0.094,551
2020-01-22T03:31:46,42.805,6.029,CST-1368DR,6919,9696,15250,0.095,551
2020-01-22T03:34:48,42.805,6.029,CST-1368DR,6919,9696,15250,0.095,551
2020-01-22T03:37:50,42.805,6.029,CST-1368DR,6919,9696,15250,0.095,551
2020-01-22T03:40:51,42.805,6.029,CST-1368DR,6919,9697,15252,0.094,551
2020-01-22T03:43:53,42.805,6.029,CST-1368DR,6919,9696,15251,0.095,551
2020-01-22T03:46:55,42.805,6.029,CST-1368DR,6919,9696,15251,0.095,551
2020-01-22T03:49:57,42.805,6.029,CST-1368DR,6919,9696,15250,0.095,551
2020-01-22T03:52:58,42.805,6.029,CST-1368DR,6919,9696,15250,0.095,551
2020-01-22T03:56:00,42.805,6.029,CST-1368DR,6919,9696,15250,0.095,551
2020-01-22T03:59:02,42.805,6.029,CST-1368DR,6919,9697,15251,0.095,551
2020-01-22T04:02:03,42.805,6.029,CST-1368DR,6919,9694,15247,0.096,551
2020-01-22T04:05:05,42.805,6.029,CST-1368DR,6919,9696,15250,0.095,551
2020-01-22T04:08:07,42.805,6.029,CST-1368DR,6919,9695,15249,0.095,551
2020-01-22T04:11:08,42.805,6.029,CST-1368DR,6918,9693,15248,0.095,551
2020-01-22T04:14:10,42.805,6.029,CST-1368DR,6918,9696,15253,0.094,551
2020-01-22T04:17:12,42.805,6.029,CST-1368DR,6918,9696,15253,0.094,551
2020-01-22T04:20:13,42.805,6.029,CST-1368DR,6918,9695,15250,0.095,551
2020-01-22T04:23:15,42.805,6.029,CST-1368DR,6918,9696,15253,0.094,551
2020-01-22T04:26:17,42.805,6.029,CST-1368DR,6918,9695,15251,0.095,551
2020-01-22T04:29:18,42.805,6.029,CST-1368DR,6918,9696,15252,0.094,551
2020-01-22T04:32:20,42.805,6.029,CST-1368DR,6918,9696,15253,0.094,551
2020-01-22T04:35:22,42.805,6.029,CST-1368DR,6918,9696,15253,0.094,551
2020-01-22T04:38:23,42.805,6.029,CST-1368DR,6918,9695,15251,0.095,551
2020-01-22T04:41:25,42.805,6.029,CST-1368DR,6918,9695,15251,0.095,551
2020-01-22T04:44:27,42.805,6.029,CST-1368DR,6918,9696,15252,0.094,551
2020-01-22T04:47:28,42.805,6.029,CST-1368DR,6918,9694,15249,0.095,551
2020-01-22T04:50:30,42.805,6.029,CST-1368DR,6918,9695,15251,0.095,551
2020-01-22T04:53:32,42.805,6.029,CST-1368DR,6918,9695,15251,0.095,551
2020-01-22T04:56:33,42.805,6.029,CST-1368DR,6918,9696,15253,0.094,551
2020-01-22T04:59:35,42.805,6.029,CST-1368DR,6918,9696,15253,0.094,551
2020-01-22T05:02:37,42.805,6.029,CST-1368DR,6918,9696,15253,0.094,551
2020-01-22T05:05:38,42.805,6.029,CST-1368DR,6918,9695,15251,0.095,551
2020-01-22T05:08:40,42.805,6.029,CST-1368DR,6918,9697,15253,0.094,551
2020-01-22T05:11:42,42.805,6.029,CST-1368DR,6918,9695,15251,0.095,551
2020-01-22T05:14:43,42.805,6.029,CST-1368DR,6918,9693,15247,0.096,551
2020-01-22T05:17:45,42.805,6.029,CST-1368DR,6918,9696,15252,0.094,551
2020-01-22T05:20:47,42.805,6.029,CST-1368DR,6918,9695,15251,0.095,551
2020-01-22T05:23:48,42.805,6.029,CST-1368DR,6918,9696,15253,0.094,550
2020-01-22T05:26:50,42.805,6.029,CST-1368DR,6918,9696,15253,0.094,551
2020-01-22T05:29:52,42.805,6.029,CST-1368DR,6918,9695,15250,0.095,551
2020-01-22T05:32:53,42.805,6.029,CST-1368DR,6918,9695,15251,0.095,551
2020-01-22T05:35:55,42.805,6.029,CST-1368DR,6918,9696,15253,0.094,551
2020-01-22T05:38:56,42.805,6.029,CST-1368DR,6918,9695,15251,0.095,551
2020-01-22T05:41:58,42.805,6.029,CST-1368DR,6918,9694,15250,0.095,551
2020-01-22T05:45:00,42.805,6.029,CST-1368DR,6918,9696,15253,0.094,551
2020-01-22T05:48:01,42.805,6.029,CST-1368DR,6918,9695,15251,0.095,551
2020-01-22T05:51:03,42.805,6.029,CST-1368DR,6918,9694,15250,0.095,551
2020-01-22T05:54:05,42.805,6.029,CST-1368DR,6918,9694,15249,0.095,551
2020-01-22T05:57:06,42.805,6.029,CST-1368DR,6918,9695,15251,0.095,551
2020-01-22T06:00:08,42.805,6.029,CST-1368DR,6918,9694,15249,0.095,551
2020-01-22T06:03:10,42.805,6.029,CST-1368DR,6918,9695,15251,0.095,551
2020-01-22T06:06:12,42.805,6.029,CST-1368DR,6918,9695,15251,0.095,551
2020-01-22T06:09:14,42.805,6.029,CST-1368DR,6918,9695,15251,0.095,551
2020-01-22T06:12:15,42.805,6.029,CST-1368DR,6918,9695,15251,0.095,551
2020-01-22T06:15:17,42.805,6.029,CST-1368DR,6918,9696,15252,0.094,551
2020-01-22T06:18:18,42.805,6.029,CST-1368DR,6918,9696,15252,0.094,551
2020-01-22T06:21:20,42.805,6.029,CST-1368DR,6918,9693,15247,0.096,551
2020-01-22T06:24:22,42.805,6.029,CST-1368DR,6918,9695,15251,0.095,551
2020-01-22T06:27:24,42.805,6.029,CST-1368DR,6918,9697,15253,0.094,551
2020-01-22T06:30:25,42.805,6.029,CST-1368DR,6918,9695,15251,0.095,551
2020-01-22T06:33:27,42.805,6.029,CST-1368DR,6918,9695,15251,0.095,551
2020-01-22T06:36:29,42.805,6.029,CST-1368DR,6918,9692,15246,0.096,551
2020-01-22T06:39:30,42.805,6.029,CST-1368DR,6918,9696,15252,0.094,551
2020-01-22T06:42:32,42.805,6.029,CST-1368DR,6918,9696,15253,0.094,551
2020-01-22T06:45:33,42.805,6.029,CST-1368DR,6918,9695,15250,0.095,551
2020-01-22T06:48:35,42.805,6.029,CST-1368DR,6918,9696,15252,0.094,551
2020-01-22T06:51:37,42.805,6.029,CST-1368DR,6918,9695,15251,0.095,551
2020-01-22T06:54:39,42.805,6.029,CST-1368DR,6918,9695,15251,0.095,551
2020-01-22T06:57:40,42.805,6.029,CST-1368DR,6918,9695,15251,0.095,551
2020-01-22T07:00:42,42.805,6.029,CST-1368DR,6918,9695,15251,0.095,551
2020-01-22T07:03:44,42.805,6.029,CST-1368DR,6918,9695,15251,0.095,551
2020-01-22T07:06:45,42.805,6.029,CST-1368DR,6918,9695,15251,0.095,551
2020-01-22T07:09:47,42.805,6.029,CST-1368DR,6918,9695,15251,0.095,551
2020-01-22T07:12:49,42.805,6.029,CST-1368DR,6918,9696,15253,0.094,551
2020-01-22T07:15:51,42.805,6.029,CST-1368DR,6918,9695,15251,0.095,551
2020-01-22T07:18:52,42.805,6.029,CST-1368DR,6918,9695,15251,0.095,551
2020-01-22T07:21:54,42.805,6.029,CST-1368DR,6918,9695,15251,0.095,551
2020-01-22T07:24:56,42.805,6.029,CST-1368DR,6918,9694,15249,0.095,551
2020-01-22T07:27:57,42.805,6.029,CST-1368DR,6918,9694,15249,0.095,551
2020-01-22T07:30:59,42.805,6.029,CST-1368DR,6918,9694,15249,0.095,551
2020-01-22T07:34:01,42.805,6.029,CST-1368DR,6918,9694,15249,0.095,551
2020-01-22T07:37:02,42.805,6.029,CST-1368DR,6918,9695,15251,0.095,551
2020-01-22T07:40:04,42.805,6.029,CST-1368DR,6918,9696,15253,0.094,551
2020-01-22T07:43:06,42.805,6.029,CST-1368DR,6918,9694,15250,0.095,551
2020-01-22T07:46:07,42.805,6.029,CST-1368DR,6918,9695,15251,0.095,551
2020-01-22T07:49:09,42.805,6.029,CST-1368DR,6918,9696,15253,0.094,551
2020-01-22T07:52:11,42.805,6.029,CST-1368DR,6918,9695,15251,0.095,551
2020-01-22T07:55:13,42.805,6.029,CST-1368DR,6918,9696,15253,0.094,551
2020-01-22T07:58:15,42.805,6.029,CST-1368DR,6918,9696,15253,0.094,551
2020-01-22T08:01:17,42.805,6.029,CST-1368DR,6918,9694,15249,0.095,551
2020-01-22T08:04:18,42.805,6.029,CST-1368DR,6918,9696,15252,0.094,551
2020-01-22T08:07:20,42.805,6.029,CST-1368DR,6918,9696,15252,0.094,551
2020-01-22T08:10:22,42.805,6.029,CST-1368DR,6918,9696,15252,0.094,551
2020-01-22T08:13:24,42.805,6.029,CST-1368DR,6918,9695,15250,0.095,551
2020-01-22T08:16:26,42.805,6.029,CST-1368DR,6918,9696,15252,0.094,551
2020-01-22T08:19:28,42.805,6.029,CST-1368DR,6918,9694,15249,0.095,551
2020-01-22T08:22:30,42.805,6.029,CST-1368DR,6918,9696,15253,0.094,551
2020-01-22T08:25:31,42.805,6.029,CST-1368DR,6918,9694,15250,0.095,551
2020-01-22T08:28:33,42.805,6.029,CST-1368DR,6918,9696,15252,0.094,550
2020-01-22T08:31:34,42.805,6.029,CST-1368DR,6918,9695,15251,0.095,551
2020-01-22T08:34:36,42.805,6.029,CST-1368DR,6917,9695,15253,0.094,551
2020-01-22T08:37:38,42.805,6.029,CST-1368DR,6918,9695,15251,0.095,551
2020-01-22T08:40:39,42.805,6.029,CST-1368DR,6917,9695,15253,0.094,551
2020-01-22T08:43:41,42.805,6.029,CST-1368DR,6918,9695,15251,0.095,551
2020-01-22T08:46:43,42.805,6.029,CST-1368DR,6917,9694,15251,0.095,551
2020-01-22T08:49:45,42.805,6.029,CST-1368DR,6918,9695,15251,0.095,551
2020-01-22T08:52:46,42.805,6.029,CST-1368DR,6917,9695,15253,0.094,551
2020-01-22T08:55:48,42.805,6.029,CST-1368DR,6917,9695,15253,0.094,551
2020-01-22T08:58:50,42.805,6.029,CST-1368DR,6917,9695,15253,0.094,551
2020-01-22T09:01:51,42.805,6.029,CST-1368DR,6917,9694,15252,0.094,551
2020-01-22T09:04:53,42.805,6.029,CST-1368DR,6917,9695,15252,0.094,551
2020-01-22T09:07:55,42.805,6.029,CST-1368DR,6917,9695,15252,0.094,551
2020-01-22T09:10:56,42.805,6.029,CST-1368DR,6917,9695,15252,0.094,551
2020-01-22T09:13:58,42.805,6.029,CST-1368DR,6917,9694,15251,0.095,551
2020-01-22T09:17:00,42.805,6.029,CST-1368DR,6917,9695,15253,0.094,551
2020-01-22T09:20:01,42.805,6.029,CST-1368DR,6917,9694,15251,0.095,551
2020-01-22T09:23:03,42.805,6.029,CST-1368DR,6917,9695,15253,0.094,551
2020-01-22T09:26:05,42.805,6.029,CST-1368DR,6917,9694,15252,0.094,551
2020-01-22T09:29:06,42.805,6.029,CST-1368DR,6917,9695,15253,0.094,551
2020-01-22T09:32:08,42.805,6.029,CST-1368DR,6917,9695,15253,0.094,551
2020-01-22T09:35:10,42.805,6.029,CST-1368DR,6917,9694,15251,0.095,551
2020-01-22T09:38:12,42.805,6.029,CST-1368DR,6917,9694,15252,0.094,551
2020-01-22T09:41:14,42.805,6.029,CST-1368DR,6917,9695,15252,0.094,551
2020-01-22T09:44:15,42.805,6.029,CST-1368DR,6917,9694,15251,0.095,551
2020-01-22T09:47:17,42.805,6.029,CST-1368DR,6917,9694,15252,0.094,551
2020-01-22T09:50:18,42.805,6.029,CST-1368DR,6917,9694,15251,0.095,551
2020-01-22T09:53:20,42.805,6.029,CST-1368DR,6917,9694,15251,0.095,551
2020-01-22T09:56:22,42.805,6.029,CST-1368DR,6917,9693,15250,0.095,551
2020-01-22T09:59:24,42.805,6.029,CST-1368DR,6917,9694,15252,0.094,551
2020-01-22T10:02:25,42.805,6.029,CST-1368DR,6917,9694,15252,0.094,551
2020-01-22T10:05:27,42.805,6.029,CST-1368DR,6917,9693,15250,0.095,551
2020-01-22T10:08:29,42.805,6.029,CST-1368DR,6917,9693,15250,0.095,551
2020-01-22T10:11:30,42.805,6.029,CST-1368DR,6917,9694,15251,0.095,551
2020-01-22T10:14:32,42.805,6.029,CST-1368DR,6917,9693,15249,0.095,551
2020-01-22T10:17:34,42.805,6.029,CST-1368DR,6917,9693,15249,0.095,551
2020-01-22T10:20:35,42.805,6.029,CST-1368DR,6917,9694,15251,0.095,550
2020-01-22T10:23:37,42.805,6.029,CST-1368DR,6917,9693,15250,0.095,551
2020-01-22T10:26:39,42.805,6.029,CST-1368DR,6917,9693,15250,0.095,551
2020-01-22T10:29:41,42.805,6.029,CST-1368DR,6917,9691,15246,0.096,551
2020-01-22T10:32:42,42.805,6.029,CST-1368DR,6917,9694,15251,0.095,551
2020-01-22T10:35:44,42.805,6.029,CST-1368DR,6917,9693,15250,0.095,551
2020-01-22T10:38:46,42.805,6.029,CST-1368DR,6917,9693,15250,0.095,551
2020-01-22T10:41:48,42.805,6.029,CST-1368DR,6917,9693,15250,0.095,551
2020-01-22T10:44:49,42.805,6.029,CST-1368DR,6917,9694,15251,0.095,551
2020-01-22T10:47:51,42.805,6.029,CST-1368DR,6917,9693,15250,0.095,551
2020-01-22T10:50:53,42.805,6.029,CST-1368DR,6917,9693,15250,0.095,551
2020-01-22T10:53:54,42.805,6.029,CST-1368DR,6917,9693,15250,0.095,551
2020-01-22T10:56:56,42.805,6.029,CST-1368DR,6917,9691,15247,0.096,551
2020-01-22T10:59:58,42.805,6.029,CST-1368DR,6917,9691,15247,0.096,551
2020-01-22T11:02:59,42.805,6.029,CST-1368DR,6917,9694,15251,0.095,550
2020-01-22T11:06:01,42.805,6.029,CST-1368DR,6917,9693,15250,0.095,551
2020-01-22T11:09:03,42.805,6.029,CST-1368DR,6917,9693,15250,0.095,551
2020-01-22T11:12:04,42.805,6.029,CST-1368DR,6917,9693,15250,0.095,551
2020-01-22T11:15:06,42.805,6.029,CST-1368DR,6917,9691,15246,0.096,551
2020-01-22T11:18:08,42.805,6.029,CST-1368DR,6917,9692,15248,0.095,551
2020-01-22T11:21:09,42.805,6.029,CST-1368DR,6917,9691,15246,0.096,551
2020-01-22T11:24:11,42.805,6.029,CST-1368DR,6917,9694,15251,0.095,551
2020-01-22T11:27:13,42.805,6.029,CST-1368DR,6917,9693,15250,0.095,551
2020-01-22T11:30:14,42.805,6.029,CST-1368DR,6917,9692,15248,0.095,551
2020-01-22T11:33:16,42.805,6.029,CST-1368DR,6917,9690,15245,0.096,550
2020-01-22T11:36:18,42.805,6.029,CST-1368DR,6917,9693,15249,0.095,551
2020-01-22T11:39:19,42.805,6.029,CST-1368DR,6917,9692,15248,0.095,551
2020-01-22T11:42:21,42.805,6.029,CST-1368DR,6917,9693,15249,0.095,551
2020-01-22T11:45:23,42.805,6.029,CST-1368DR,6917,9693,15249,0.095,551
2020-01-22T11:48:24,42.805,6.029,CST-1368DR,6917,9691,15247,0.096,551
2020-01-22T11:51:26,42.805,6.029,CST-1368DR,6917,9693,15249,0.095,551
2020-01-22T11:54:28,42.805,6.029,CST-1368DR,6917,9693,15250,0.095,551
2020-01-22T11:57:29,42.805,6.029,CST-1368DR,6917,9691,15246,0.096,551
2020-01-22T12:00:31,42.805,6.029,CST-1368DR,6917,9692,15248,0.095,551
2020-01-22T12:03:34,42.805,6.029,CST-1368DR,6917,9692,15248,0.095,551
2020-01-22T12:06:36,42.805,6.029,CST-1368DR,6917,9694,15251,0.095,551
2020-01-22T12:09:37,42.805,6.029,CST-1368DR,6917,9693,15250,0.095,551
2020-01-22T12:12:39,42.805,6.029,CST-1368DR,6917,9693,15250,0.095,551
2020-01-22T12:15:40,42.805,6.029,CST-1368DR,6917,9694,15251,0.095,551
2020-01-22T12:18:42,42.805,6.029,CST-1368DR,6917,9691,15247,0.096,551
2020-01-22T12:21:44,42.805,6.029,CST-1368DR,6917,9692,15248,0.095,551
2020-01-22T12:24:45,42.805,6.029,CST-1368DR,6917,9693,15250,0.095,551
2020-01-22T12:27:47,42.805,6.029,CST-1368DR,6917,9693,15249,0.095,551
2020-01-22T12:30:49,42.805,6.029,CST-1368DR,6917,9691,15247,0.096,551
2020-01-22T12:33:50,42.805,6.029,CST-1368DR,6917,9694,15251,0.095,551
2020-01-22T12:36:52,42.805,6.029,CST-1368DR,6917,9693,15249,0.095,551
2020-01-22T12:39:54,42.805,6.029,CST-1368DR,6916,9693,15251,0.095,551
2020-01-22T12:42:55,42.805,6.029,CST-1368DR,6917,9692,15248,0.095,551
2020-01-22T12:45:57,42.805,6.029,CST-1368DR,6916,9692,15250,0.095,551
2020-01-22T12:48:59,42.805,6.029,CST-1368DR,6916,9689,15246,0.096,551
2020-01-22T12:52:00,42.805,6.029,CST-1368DR,6916,9692,15250,0.095,551
2020-01-22T12:55:02,42.805,6.029,CST-1368DR,6916,9693,15251,0.095,551
2020-01-22T12:58:04,42.805,6.029,CST-1368DR,6916,9691,15249,0.095,551
2020-01-22T13:01:05,42.805,6.029,CST-1368DR,6916,9691,15248,0.095,551
2020-01-22T13:04:07,42.805,6.029,CST-1368DR,6916,9692,15250,0.095,551
2020-01-22T13:07:09,42.805,6.029,CST-1368DR,6916,9691,15249,0.095,551
2020-01-22T13:10:11,42.805,6.029,CST-1368DR,6916,9691,15249,0.095,551
2020-01-22T13:13:12,42.805,6.029,CST-1368DR,6916,9692,15250,0.095,551
2020-01-22T13:16:14,42.805,6.029,CST-1368DR,6916,9691,15249,0.095,551
2020-01-22T13:19:15,42.805,6.029,CST-1368DR,6916,9693,15251,0.095,551
2020-01-22T13:22:17,42.805,6.029,CST-1368DR,6916,9692,15250,0.095,551
2020-01-22T13:25:19,42.805,6.029,CST-1368DR,6916,9693,15251,0.095,551
2020-01-22T13:28:21,42.805,6.029,CST-1368DR,6916,9691,15249,0.095,551
2020-01-22T13:31:22,42.805,6.029,CST-1368DR,6916,9692,15250,0.095,551
2020-01-22T13:34:24,42.805,6.029,CST-1368DR,6916,9691,15249,0.095,551
2020-01-22T13:37:26,42.805,6.029,CST-1368DR,6916,9690,15246,0.096,551
2020-01-22T13:40:27,42.805,6.029,CST-1368DR,6916,9691,15249,0.095,551
2020-01-22T13:43:29,42.805,6.029,CST-1368DR,6916,9689,15245,0.096,551
2020-01-22T13:46:31,42.805,6.029,CST-1368DR,6916,9692,15250,0.095,551
2020-01-22T13:49:32,42.805,6.029,CST-1368DR,6916,9690,15248,0.095,551
2020-01-22T13:52:34,42.805,6.029,CST-1368DR,6916,9692,15250,0.095,551
2020-01-22T13:55:36,42.805,6.029,CST-1368DR,6916,9692,15250,0.095,551
2020-01-22T13:58:37,42.805,6.029,CST-1368DR,6916,9692,15250,0.095,551
2020-01-22T14:01:39,42.805,6.029,CST-1368DR,6916,9693,15252,0.094,551
2020-01-22T14:04:41,42.805,6.029,CST-1368DR,6916,9692,15250,0.095,551
2020-01-22T14:07:42,42.805,6.029,CST-1368DR,6916,9693,15251,0.095,551
2020-01-22T14:10:44,42.805,6.029,CST-1368DR,6916,9693,15252,0.094,551
2020-01-22T14:13:46,42.805,6.029,CST-1368DR,6916,9693,15252,0.094,550
2020-01-22T14:16:47,42.805,6.029,CST-1368DR,6916,9692,15250,0.095,551
2020-01-22T14:19:49,42.805,6.029,CST-1368DR,6916,9687,15242,0.097,551
2020-01-22T14:22:51,42.805,6.029,CST-1368DR,6916,9692,15250,0.095,551
2020-01-22T14:25:52,42.805,6.029,CST-1368DR,6916,9692,15250,0.095,551
2020-01-22T14:28:54,42.805,6.029,CST-1368DR,6916,9693,15251,0.095,551
2020-01-22T14:31:56,42.805,6.029,CST-1368DR,6916,9692,15250,0.095,551
2020-01-22T14:34:57,42.805,6.029,CST-1368DR,6916,9692,15250,0.095,551
2020-01-22T14:37:59,42.805,6.029,CST-1368DR,6916,9692,15250,0.095,551
2020-01-22T14:41:00,42.805,6.029,CST-1368DR,6916,9693,15252,0.094,551
2020-01-22T14:44:02,42.805,6.029,CST-1368DR,6916,9692,15250,0.095,551
2020-01-22T14:47:04,42.805,6.029,CST-1368DR,6916,9692,15250,0.095,551
2020-01-22T14:50:05,42.805,6.029,CST-1368DR,6916,9692,15250,0.095,551
2020-01-22T14:53:07,42.805,6.029,CST-1368DR,6916,9694,15253,0.094,550
2020-01-22T14:56:09,42.805,6.029,CST-1368DR,6916,9693,15251,0.095,551
2020-01-22T14:59:10,42.805,6.029,CST-1368DR,6916,9691,15249,0.095,551
2020-01-22T15:02:12,42.805,6.029,CST-1368DR,6916,9693,15251,0.095,551
2020-01-22T15:05:14,42.805,6.029,CST-1368DR,6916,9692,15250,0.095,551
2020-01-22T15:08:15,42.805,6.029,CST-1368DR,6916,9692,15250,0.095,551
2020-01-22T15:11:17,42.805,6.029,CST-1368DR,6916,9691,15248,0.095,550
2020-01-22T15:14:19,42.805,6.029,CST-1368DR,6916,9690,15248,0.095,551
2020-01-22T15:17:20,42.805,6.029,CST-1368DR,6916,9690,15248,0.095,551
2020-01-22T15:20:22,42.805,6.029,CST-1368DR,6916,9692,15250,0.095,551
2020-01-22T15:23:24,42.805,6.029,CST-1368DR,6916,9691,15249,0.095,551
2020-01-22T15:26:25,42.805,6.029,CST-1368DR,6916,9690,15247,0.096,551
2020-01-22T15:29:27,42.805,6.029,CST-1368DR,6916,9692,15250,0.095,551
2020-01-22T15:32:29,42.805,6.029,CST-1368DR,6916,9689,15245,0.096,551
2020-01-22T15:35:30,42.805,6.029,CST-1368DR,6916,9692,15250,0.095,551
2020-01-22T15:38:32,42.805,6.029,CST-1368DR,6916,9691,15248,0.095,550
2020-01-22T15:41:33,42.805,6.029,CST-1368DR,6916,9693,15251,0.095,550
2020-01-22T15:44:35,42.805,6.029,CST-1368DR,6916,9691,15248,0.095,551
2020-01-22T15:47:37,42.805,6.029,CST-1368DR,6916,9691,15249,0.095,550
2020-01-22T15:50:38,42.805,6.029,CST-1368DR,6915,9690,15249,0.095,551
2020-01-22T15:53:40,42.805,6.029,CST-1368DR,6916,9692,15250,0.095,551
2020-01-22T15:56:42,42.805,6.029,CST-1368DR,6915,9692,15252,0.094,551
2020-01-22T15:59:43,42.805,6.029,CST-1368DR,6916,9691,15249,0.095,551
2020-01-22T16:02:45,42.805,6.029,CST-1368DR,6916,9692,15250,0.095,551
2020-01-22T16:05:47,42.805,6.029,CST-1368DR,6916,9692,15250,0.095,551
2020-01-22T16:08:48,42.805,6.029,CST-1368DR,6916,9692,15250,0.095,551
2020-01-22T16:11:50,42.805,6.029,CST-1368DR,6916,9693,15251,0.095,551
2020-01-22T16:14:52,42.805,6.029,CST-1368DR,6916,9690,15247,0.096,551
2020-01-22T16:17:53,42.805,6.029,CST-1368DR,6916,9692,15250,0.095,551
2020-01-22T16:20:55,42.805,6.029,CST-1368DR,6915,9691,15251,0.095,550
2020-01-22T16:23:57,42.805,6.029,CST-1368DR,6915,9692,15252,0.094,551
2020-01-22T16:26:58,42.805,6.029,CST-1368DR,6915,9693,15253,0.094,551
2020-01-22T16:30:00,42.805,6.029,CST-1368DR,6916,9691,15248,0.095,551
2020-01-22T16:33:02,42.805,6.029,CST-1368DR,6915,9691,15251,0.095,550
2020-01-22T16:36:04,42.805,6.029,CST-1368DR,6915,9692,15252,0.094,551
2020-01-22T16:39:05,42.805,6.029,CST-1368DR,6915,9691,15250,0.095,551
2020-01-22T16:42:07,42.805,6.029,CST-1368DR,6915,9688,15247,0.096,551
2020-01-22T16:45:08,42.805,6.029,CST-1368DR,6915,9691,15251,0.095,551
2020-01-22T16:48:10,42.805,6.029,CST-1368DR,6915,9692,15252,0.094,551
2020-01-22T16:51:12,42.805,6.029,CST-1368DR,6915,9692,15252,0.094,551
2020-01-22T16:54:14,42.805,6.029,CST-1368DR,6915,9681,15234,0.099,551